This demonstration page uses our WeatherBlox Daily Observations layout. Learn more.

39.92423, -83.80882

Hourly Observations for July 11, 2018

Temp ( °F °C ) Dew Point ( °F °C ) Humidity (%) Winds ( mph kmh ) Pressure ( in mb ) Visibility ( mi km ) Precip ( " mm )
12:22 am 00:22 Mostly Clear with Mist and Fog 70 21 70 21 100 100 ENE 3 6 30.03 1017 3 4.82802 0 0
12:56 am 00:56 Clear 72 22.2 72 22.2 100 100 ENE 9 15 30.03 1017 10 16.0934 0 0
1:56 am 01:56 Clear 68 20 63 17.2 84 84 E 7 11 30.05 1018 10 16.0934 0 0
2:56 am 02:56 Clear 67 19.4 62 16.7 84 84 ENE 7 11 30.04 1017 10 16.0934 0 0
4:56 am 04:56 Clear 65 18.3 61 16.1 87 87 NE 6 9 30.07 1018 10 16.0934 0 0
5:56 am 05:56 Clear 65 18.3 58 14.4 78 78 NE 9 15 30.08 1019 10 16.0934 0 0
6:56 am 06:56 Sunny 64 17.8 56 13.3 75 75 NE 7 11 30.1 1019 10 16.0934 0 0
7:56 am 07:56 Sunny 68 20 58 14.4 70 70 NE 7 11 30.1 1019 10 16.0934 0 0
8:56 am 08:56 Sunny 70 21.1 60 15.6 71 71 ENE 9 15 30.12 1020 10 16.0934 0 0
9:56 am 09:56 Sunny 73 22.8 60 15.6 64 64 ENE 8 13 30.13 1020 10 16.0934 0 0
10:56 am 10:56 Sunny 75 23.9 60 15.6 60 60 ESE 7 11 30.13 1020 10 16.0934 0 0
11:56 am 11:56 Sunny 77 25 58 14.4 52 52 ENE 7 11 30.12 1020 10 16.0934 0 0
12:56 pm 12:56 Sunny 78 25.6 60 15.6 54 54 N 8 13 30.13 1020 10 16.0934 0 0
1:56 pm 13:56 Sunny 79 26.1 58 14.4 49 49 NE 13 20 30.13 1020 10 16.0934 0 0
2:56 pm 14:56 Sunny 80 26.7 58 14.4 47 47 ENE 12 19 30.11 1020 10 16.0934 0 0
3:56 pm 15:56 Sunny 81 27.2 58 14.4 45 45 NE 12 19 30.11 1020 9 14.48406 0 0
4:56 pm 16:56 Sunny 80 26.7 61 16.1 52 52 NE 10 17 30.11 1020 10 16.0934 0 0
5:56 pm 17:56 Sunny 80 26.7 61 16.1 52 52 NNE 12 19 30.11 1020 10 16.0934 0 0
6:56 pm 18:56 Sunny 78 25.6 59 15 52 52 NE 13 20 30.1 1019 10 16.0934 0 0
7:56 pm 19:56 Sunny 76 24.4 58 14.4 54 54 NE 12 19 30.1 1019 10 16.0934 0 0
8:56 pm 20:56 Sunny 71 21.7 57 13.9 61 61 NE 7 11 30.12 1020 10 16.0934 0 0
9:56 pm 21:56 Clear 68 20 56 13.3 65 65 NE 7 11 30.13 1020 10 16.0934 0 0
10:56 pm 22:56 Clear 65 18.3 56 13.3 73 73 ENE 6 9 30.14 1021 10 16.0934 0 0
11:56 pm 23:56 Clear 62 16.7 56 13.3 80 80 ENE 7 11 30.15 1021 10 16.0934 0 0

Powered by AerisWeather